Location: Belfast
(54.5830°N, 5.9330°W)
Time: 02:16:41
(UTC+00:00)

ISS - Pass Details

Date: 31 January 2021
Orbit: 417 x 422 km, 51.6° (Epoch: 25 February)

Event Time Altitude Azimuth Distance (km) Brightness Sun altitude
Rises 20:10:50 0° 276° (W) 2,380 1.4 -27.4°
Reaches altitude 10° 20:13:29 10° 254° (WSW) 1,512 -0.1 -27.8°
Enters shadow 20:14:36 14° 236° (WSW) 1,268 -0.8 -27.9°
